Back to catalog

QIANFAN-185

AliveCommunicationsPO
NORAD 69403·PAYLOAD·🇨🇳 China

Launched Jun 5, 2026 from Wenchang Space Launch Site

Loading…

Next Passes (next 24 hours)

TLE

FreshSource: Space-Track

Epoch: Sep 14, 2026, 13:30 UTC

1 69403U 26125C   26257.56290220  .00000008  00000-0 -58381-5 0  9995
2 69403  88.9898 270.8766 0001845  99.0683 261.0677 13.51017614 14040

Track QIANFAN-185 in real time with AllMySat

Download on the App Store